Погода в Александрополе

Украина / Днепропетровская область     47°51′39″N   34°12′09″E
темп.,
°C
ветер,
м/с
пор.,
м/с
влажн.,
%
обл.,
%
осадки,
мм/ч
давл.,
гПа
погр.,
м
24 января, пн
пн2423:00−5с71386100 0.0 1022495
02:00−5с81687100 0.0 1022525
05:00−5ссв91689100 0.1 1021685
08:00−5ссв81492100 0.8 1022609
11:00−4ссв81392100 1.3 1023562
14:00−3ссв71192100 1.8 1022624
17:00−3ссв71294100 1.1 1023678
20:00−4ссв61095100 1.6 1024627
25 января, вт
вт2523:00−5ссв61095100 1.0 1024578
02:00−6ссв599499 1.9 1024450
05:00−8ссв599489 0.4 1023341
08:00−9ссв589480 0.6 1024291
11:00−6ссв4589100 0.1 1024372
14:00−5ссв3487100 0.3 1023454
17:00−7с229691 0.1 102338
20:00−9с229783 0.1 102328
26 января, ср
ср2623:00−9с119778 0.1 102310
02:00−12сз119982 0.1 10229
05:00−13зюз1199100 0.0 102010
08:00−12юз2298100 0.0 102053
11:00−6юз3487100 0.0 1020285
14:00−4юз3483100 0.0 1019451
17:00−6юз1196100 0.1 101910
20:00−7ююз119775 0.4 101910
27 января, чт
чт2723:00−8зсз119885 0.1 102012
02:00−8ссз359657 0.2 102096
05:00−11ссз349737 0.0 102050
08:00−12ссз249695 0.0 102148
11:00−6зсз228985 0.0 1020248
14:00−4зюз348489 0.0 1019533
17:00−9юз22945 0.0 101915
20:00−6ююз489289 0.0 1018201
28 января, пт
пт2823:00−4ююз51097100 0.4 1016324
02:00−3ююз4997100 1.2 1015306
05:00−2юз51396100 0.4 1014529
08:000ююз51194100 0.7 1013434
11:00+1юз61398100 0.3 1013606
14:00+1юз6129792 0.3 1012457
17:00+1юз51198100 0.0 1012399
20:00−1юз4129548 0.0 1012268